Location: Spruce Knob
(38.6995°N, 79.5330°W)
Time: 11:42:56
(UTC-05:00)

Envisat - Pass Details

Date: 06 December 2021
Orbit: 764 x 766 km, 98.2° (Epoch: 23 January)

Event Time Altitude Azimuth Distance (km) Brightness Sun altitude
Rises 05:59:16 0° 3° (N) 3,238 6.1 -15.7°
Reaches altitude 10° 06:01:43 10° 355° (N) 2,307 5.3 -15.3°
Maximum altitude 06:06:21 36° 290° (WNW) 1,187 3.5 -14.4°
Drops below altitude 10° 06:10:56 10° 224° (SW) 2,292 5.2 -13.6°
Sets 06:13:23 0° 216° (SW) 3,214 6.0 -13.1°
